KUIPER-00107

导读 | 豆包AI

KUIPER-00107是美国亚马逊柯伊伯(Kuiper)低轨卫星星座的组网卫星,于2025年8月11日发射入轨。该星座计划部署3236颗Ka波段卫星,运行在590-630公里近地轨道,旨在为全球提供高速低延迟卫星宽带服务。卫星搭载多用户相控阵天线,可动态调配容量与频段,支持个人消费、企业联网与无线回程业务,通过星上再生交换实现高效路由,是全球低轨互联网基础设施建设的重要组成部分。

Basic Information
目录编号:
65145
目录名称:
KUIPER-00107
国际标识:
2025-171P
轨道中心:
EARTH
卫星名称:
KUIPER-00107
卫星全名:
KUIPER-00107
卫星状态:
在轨 (已飞行265 天)
发射日期:
2025-08-11 UTC
国别 :
美国 (US)
星等 :
--
Orbit Information
数据来源 国际轨道数据 AOE轨道数据
星历时间 2026-05-03T10:48:51+0800
6小时前
查看轨道信息
2026-05-03T13:00:00+0800
4小时前
查看轨道信息
半长轴 7007.648km 7007.633km
偏心率 0.0000655 0.000051
轨道倾角 51.901° 51.902°
近地点辐角 103.416° 77.762°
升交点赤经 267.415° 267.013°
平近点角 256.687° 47.864°
近地点 629.051km 629.138km
远地点 629.971km 629.854km
周期 97.301分钟 97.301分钟
每日圈数 14.79941 14.799458
Detailed Information
使用方式:
暂无
2D Orbit Map
3D Orbit Map
Orbit Altitude Analysis Chart
Orbit Inclination Analysis Chart
Orbit Comprehensive Analysis Chart
View Comprehensive Chart